TimeCDT,TemperatureF,Dew PointF,Humidity,Sea Level PressureIn,VisibilityMPH,Wind Direction,Wind SpeedMPH,Gust SpeedMPH,PrecipitationIn,Events,Conditions,WindDirDegrees,DateUTC
12:13 AM,53.6,51.8,94,29.77,10.0,ENE,8.1,23.0,N/A,,Overcast,70,2013-05-20 05:13:00
12:33 AM,53.6,51.8,94,29.77,10.0,ENE,11.5,18.4,N/A,,Overcast,70,2013-05-20 05:33:00
12:52 AM,53.6,51.8,94,29.76,10.0,East,13.8,25.3,N/A,,Overcast,80,2013-05-20 05:52:00
1:13 AM,53.6,51.8,94,29.78,10.0,East,9.2,20.7,N/A,,Overcast,90,2013-05-20 06:13:00
1:33 AM,53.6,51.8,94,29.76,2.5,East,17.3,24.2,0.23,Rain,Heavy Rain,80,2013-05-20 06:33:00
1:52 AM,53.6,51.8,94,29.79,4.0,East,10.4,24.2,0.39,Rain,Light Rain,100,2013-05-20 06:52:00
2:13 AM,53.6,51.8,94,29.78,10.0,East,6.9,18.4,0.01,,Light Drizzle,80,2013-05-20 07:13:00
2:33 AM,53.6,51.8,94,29.76,10.0,East,13.8,21.9,0.01,,Overcast,80,2013-05-20 07:33:00
2:52 AM,53.6,50.0,88,29.74,10.0,East,12.7,19.6,0.01,,Overcast,80,2013-05-20 07:52:00
3:13 AM,53.6,50.0,88,29.72,10.0,East,15.0,23.0,N/A,Rain,Light Rain,80,2013-05-20 08:13:00
3:33 AM,53.6,50.0,88,29.71,10.0,ENE,9.2,19.6,0.02,Rain,Light Rain,70,2013-05-20 08:33:00
3:52 AM,51.8,50.0,94,29.70,10.0,ENE,10.4,19.6,0.03,Rain,Light Rain,70,2013-05-20 08:52:00
4:13 AM,51.8,50.0,94,29.69,10.0,East,11.5,20.7,0.01,Rain,Light Rain,80,2013-05-20 09:13:00
4:33 AM,51.8,50.0,94,29.69,10.0,East,12.7,25.3,0.03,Rain,Light Rain,80,2013-05-20 09:33:00
4:52 AM,51.8,50.0,94,29.68,10.0,ENE,10.4,23.0,0.07,Rain,Light Rain,70,2013-05-20 09:52:00
5:13 AM,51.8,50.0,94,29.69,10.0,East,10.4,17.3,0.01,Rain,Light Rain,90,2013-05-20 10:13:00
5:33 AM,51.8,50.0,94,29.68,10.0,East,12.7,18.4,0.01,,Overcast,80,2013-05-20 10:33:00
5:52 AM,51.8,50.0,94,29.66,10.0,East,10.4,19.6,0.01,,Light Drizzle,80,2013-05-20 10:52:00
6:13 AM,51.8,50.0,94,29.65,10.0,East,11.5,24.2,N/A,,Overcast,80,2013-05-20 11:13:00
6:33 AM,51.8,50.0,94,29.65,10.0,ENE,11.5,20.7,N/A,Rain,Rain,70,2013-05-20 11:33:00
6:52 AM,51.8,50.0,94,29.67,10.0,East,6.9,19.6,N/A,Rain,Light Rain,80,2013-05-20 11:52:00
7:13 AM,51.8,50.0,94,29.66,10.0,ENE,13.8,21.9,N/A,Rain,Rain,60,2013-05-20 12:13:00
7:32 AM,51.8,48.2,88,29.66,10.0,ENE,13.8,28.8,N/A,,Overcast,70,2013-05-20 12:32:00
7:52 AM,51.8,48.2,88,29.68,10.0,East,16.1,20.7,0.01,Rain,Light Rain,90,2013-05-20 12:52:00
8:12 AM,51.8,48.2,88,29.69,5.0,East,12.7,26.5,0.01,Rain,Light Rain,100,2013-05-20 13:12:00
8:32 AM,51.8,48.2,88,29.69,7.0,East,16.1,20.7,0.07,Rain,Light Rain,90,2013-05-20 13:32:00
8:53 AM,51.8,48.2,88,29.68,10.0,East,15.0,23.0,0.08,Rain,Light Rain,90,2013-05-20 13:53:00
9:12 AM,51.8,48.2,88,29.67,10.0,East,15.0,21.9,N/A,,Overcast,80,2013-05-20 14:12:00
9:33 AM,51.8,48.2,88,29.67,4.0,East,10.4,27.6,0.01,Rain,Light Rain,90,2013-05-20 14:33:00
9:53 AM,51.8,48.2,88,29.67,4.0,East,15.0,26.5,0.02,Rain,Light Rain,100,2013-05-20 14:53:00
10:33 AM,51.8,48.2,88,29.67,4.0,East,11.5,20.7,N/A,Rain,Rain,100,2013-05-20 15:33:00
10:53 AM,51.8,48.2,88,29.67,7.0,East,13.8,25.3,N/A,,Overcast,100,2013-05-20 15:53:00
11:12 AM,51.8,48.2,88,29.67,10.0,East,11.5,20.7,N/A,,Overcast,100,2013-05-20 16:12:00
11:33 AM,51.8,48.2,88,29.67,7.0,East,12.7,19.6,N/A,,Overcast,90,2013-05-20 16:33:00
11:53 AM,51.8,48.2,88,29.68,7.0,East,12.7,20.7,N/A,Rain,Light Rain,100,2013-05-20 16:53:00
12:12 PM,51.8,48.2,88,29.68,5.0,East,16.1,21.9,0.03,Rain,Rain,100,2013-05-20 17:12:00
12:33 PM,51.8,48.2,88,29.68,7.0,East,11.5,20.7,0.07,Rain,Light Rain,100,2013-05-20 17:33:00
12:53 PM,51.8,48.2,88,29.68,7.0,East,13.8,21.9,N/A,,Light Drizzle,90,2013-05-20 17:53:00
1:12 PM,51.8,48.2,88,29.68,7.0,East,11.5,18.4,N/A,,Light Drizzle,90,2013-05-20 18:12:00
1:53 PM,51.8,48.2,88,29.68,5.0,East,10.4,18.4,N/A,Rain,Light Rain,90,2013-05-20 18:53:00
2:12 PM,51.8,48.2,88,29.68,7.0,East,11.5,24.2,0.01,Rain,Light Rain,90,2013-05-20 19:12:00
2:33 PM,51.8,48.2,88,29.68,10.0,East,15.0,23.0,0.01,,Overcast,90,2013-05-20 19:33:00
2:52 PM,51.8,48.2,88,29.69,10.0,East,12.7,20.7,0.01,,Overcast,90,2013-05-20 19:52:00
3:12 PM,51.8,48.2,88,29.70,10.0,East,9.2,24.2,N/A,,Overcast,80,2013-05-20 20:12:00
3:33 PM,51.8,48.2,88,29.71,10.0,East,10.4,16.1,N/A,,Overcast,90,2013-05-20 20:33:00
3:52 PM,51.8,48.2,88,29.71,10.0,East,12.7,20.7,N/A,,Overcast,90,2013-05-20 20:52:00
4:12 PM,51.8,48.2,88,29.71,10.0,East,8.1,16.1,N/A,,Overcast,80,2013-05-20 21:12:00
4:33 PM,51.8,48.2,88,29.71,10.0,East,8.1,25.3,N/A,,Overcast,90,2013-05-20 21:33:00
4:52 PM,50.0,46.4,87,29.70,10.0,ENE,9.2,20.7,N/A,,Overcast,70,2013-05-20 21:52:00
5:12 PM,50.0,46.4,87,29.71,10.0,East,15.0,21.9,N/A,,Overcast,80,2013-05-20 22:12:00
5:33 PM,50.0,46.4,87,29.71,10.0,East,16.1,23.0,N/A,Rain,Light Rain,80,2013-05-20 22:33:00
5:52 PM,50.0,46.4,87,29.71,10.0,ENE,15.0,20.7,N/A,,Overcast,70,2013-05-20 22:52:00
6:12 PM,50.0,46.4,87,29.71,10.0,ENE,6.9,16.1,N/A,Rain,Light Rain,60,2013-05-20 23:12:00
6:33 PM,50.0,46.4,87,29.71,10.0,ENE,9.2,-,N/A,,Overcast,70,2013-05-20 23:33:00
6:52 PM,48.2,46.4,93,29.71,10.0,ENE,11.5,16.1,N/A,Rain,Light Rain,70,2013-05-20 23:52:00
7:12 PM,48.2,46.4,93,29.72,4.0,ENE,11.5,16.1,0.02,Rain,Rain,70,2013-05-21 00:12:00
7:33 PM,48.2,46.4,93,29.72,7.0,ENE,9.2,17.3,0.09,Rain,Light Rain,70,2013-05-21 00:33:00
7:52 PM,48.2,46.4,93,29.74,3.0,ENE,5.8,-,0.14,Rain,Heavy Rain,70,2013-05-21 00:52:00
8:12 PM,48.2,46.4,93,29.73,10.0,East,9.2,-,0.09,Rain,Rain,80,2013-05-21 01:12:00
8:33 PM,48.2,46.4,93,29.74,10.0,East,10.4,-,0.13,Rain,Light Rain,90,2013-05-21 01:33:00
8:51 PM,48.2,46.4,93,29.74,7.0,East,9.2,-,N/A,Rain,Light Rain,80,2013-05-21 01:51:00
9:13 PM,48.2,46.4,93,29.74,10.0,ENE,8.1,-,N/A,,Overcast,70,2013-05-21 02:13:00
9:32 PM,48.2,46.4,93,29.75,10.0,ENE,8.1,-,N/A,,Overcast,70,2013-05-21 02:32:00
9:52 PM,48.2,46.4,93,29.75,10.0,ENE,8.1,-,N/A,,Overcast,70,2013-05-21 02:52:00
10:13 PM,48.2,46.4,93,29.74,10.0,ENE,8.1,-,N/A,,Overcast,60,2013-05-21 03:13:00
10:32 PM,48.2,46.4,93,29.75,10.0,ENE,8.1,-,N/A,,Overcast,70,2013-05-21 03:32:00
10:52 PM,48.2,46.4,93,29.75,10.0,ENE,5.8,-,N/A,Rain,Rain,60,2013-05-21 03:52:00
11:13 PM,48.2,46.4,93,29.74,10.0,ENE,6.9,-,0.01,Rain,Rain,60,2013-05-21 04:13:00
11:32 PM,48.2,46.4,93,29.73,10.0,ENE,8.1,-,0.01,,Light Drizzle,60,2013-05-21 04:32:00
11:52 PM,48.2,46.4,93,29.73,10.0,ENE,5.8,-,0.01,,Overcast,60,2013-05-21 04:52:00